GW6963 Weather Reports


Display with metric or nautical units.
time (UTC)temp
F
wind
direction
speed
MPH
gust
MPH
rain 1hr
in
rain 24hr
in
rain mn
in
humidity
%
barometer
mb
20260507105107 49 330 0.0 0.0 0.00 0.01 0.01 86 1007.6
20260507104606 49 330 0.0 0.0 0.00 0.01 0.01 85 1007.8
20260507104101 49 330 0.0 0.0 0.00 0.01 0.01 85 1007.7
20260507103557 49 330 0.0 0.0 0.00 0.01 0.01 85 1007.1
20260507103054 49 331 0.0 1.0 0.00 0.01 0.01 85 1006.9
20260507102550 49 331 0.0 0.0 0.00 0.01 0.01 86 1006.9
20260507102047 49 330 1.0 1.0 0.00 0.01 0.01 86 1006.8
20260507101542 49 331 0.0 0.0 0.00 0.01 0.01 87 1006.8
20260507101039 49 287 0.0 0.0 0.00 0.01 0.01 87 1007.0
20260507100536 49 285 0.0 0.0 0.00 0.01 0.01 87 1007.1
20260507100034 49 282 0.0 0.0 0.00 0.01 0.01 87 1006.8
20260507095532 49 277 0.0 0.0 0.00 0.01 0.01 88 1006.5
20260507095028 49 286 0.0 0.0 0.00 0.01 0.01 88 1006.7
20260507094525 49 284 0.0 2.0 0.00 0.01 0.01 87 1006.8
20260507094022 49 336 0.0 1.0 0.00 0.01 0.01 88 1007.0
20260507093519 49 336 0.0 0.0 0.00 0.01 0.01 87 1007.2
20260507093018 49 336 0.0 1.0 0.00 0.01 0.01 86 1007.2
20260507092514 50 336 0.0 1.0 0.00 0.01 0.01 85 1006.9
20260507092011 50 314 0.0 0.0 0.00 0.01 0.01 86 1007.0
20260507091507 50 299 0.0 0.0 0.00 0.01 0.01 86 1007.0
20260507091003 50 298 0.0 1.0 0.00 0.01 0.01 86 1007.3
20260507090459 50 298 0.0 1.0 0.00 0.01 0.01 86 1007.3
20260507085956 50 298 0.0 1.0 0.00 0.01 0.01 87 1007.2
20260507085453 50 309 0.0 0.0 0.00 0.01 0.01 88 1007.0
20260507084950 51 309 0.0 0.0 0.00 0.01 0.01 88 1007.2
20260507084447 51 309 0.0 1.0 0.00 0.01 0.01 88 1006.8
20260507083944 51 307 0.0 1.0 0.00 0.01 0.01 89 1006.7
20260507083440 51 311 0.0 0.0 0.00 0.01 0.01 90 1007.0
20260507082936 51 311 1.0 1.0 0.00 0.01 0.01 89 1006.9
20260507082432 51 318 0.0 0.0 0.00 0.01 0.01 90 1006.6
20260507081929 51 318 0.0 0.0 0.00 0.01 0.01 90 1006.5
20260507081426 51 318 0.0 0.0 0.00 0.01 0.01 90 1006.3
20260507080923 51 307 0.0 0.0 0.00 0.01 0.01 90 1006.4
20260507080419 52 307 0.0 0.0 0.05 0.01 0.01 90 1006.4
20260507075914 52 309 0.0 0.0 0.05 0.01 0.01 89 1006.8
20260507075411 52 309 0.0 1.0 0.00 0.00 0.00 88 1007.0
20260507074907 52 308 0.0 2.0 0.00 0.00 0.00 87 1006.6
20260507074404 53 333 0.0 0.0 0.00 0.00 0.00 85 1006.4
20260507073902 53 300 0.0 1.0 0.00 0.00 0.00 85 1007.0
20260507073358 53 300 0.0 1.0 0.00 0.00 0.00 84 1006.7
20260507072855 53 300 0.0 1.0 0.00 0.00 0.00 84 1006.2
20260507072352 53 300 0.0 1.0 0.00 0.00 0.00 84 1006.0
20260507071850 53 300 0.0 0.0 0.00 0.00 0.00 83 1006.0
20260507071347 53 300 0.0 0.0 0.00 0.00 0.00 83 1006.2
20260507070843 53 300 0.0 0.0 0.00 0.00 0.00 82 1006.2
20260507070341 53 300 0.0 1.0 0.00 0.00 0.00 82 1006.4
20260507065837 53 300 0.0 0.0 0.00 0.00 0.00 82 1005.9
20260507065334 53 300 0.0 0.0 0.00 0.00 0.00 81 1005.9
20260507064831 53 292 0.0 0.0 0.00 0.00 0.00 81 1006.0
20260507064330 53 292 1.0 3.0 0.00 0.00 0.00 81 1006.1
20260507063827 53 355 1.0 1.0 0.00 0.00 0.00 82 1006.1
20260507063324 53 8 0.0 1.0 0.00 0.00 0.00 82 1005.9
20260507062820 53 333 0.0 0.0 0.00 0.00 0.00 82 1005.9
20260507062317 54 294 0.0 3.0 0.00 0.00 0.00 82 1006.0
20260507061816 54 302 3.0 3.0 0.00 0.00 0.00 83 1005.8
20260507061313 54 296 1.0 3.0 0.00 0.00 0.00 82 1006.0
20260507060811 54 318 0.0 2.0 0.00 0.00 0.00 83 1006.2
20260507060308 54 56 1.0 3.0 0.00 0.00 0.00 84 1006.0
20260507055804 55 297 0.0 0.0 0.00 0.00 0.00 84 1006.0
20260507055259 55 261 2.0 2.0 0.00 0.00 0.00 86 1006.2
20260507054756 55 297 0.0 1.0 0.00 0.00 0.00 87 1006.2
20260507054253 55 23 0.0 1.0 0.00 0.00 0.00 89 1006.2
20260507053750 55 317 1.0 2.0 0.00 0.00 0.00 88 1006.4
20260507053248 55 13 0.0 1.0 0.00 0.00 0.00 88 1006.3
20260507052746 55 290 1.0 4.0 0.00 0.00 0.00 89 1005.9
20260507052242 56 297 1.0 2.0 0.00 0.00 0.00 89 1006.1
20260507051741 56 321 2.0 2.0 0.00 0.00 0.00 89 1006.2
20260507051237 56 342 1.0 2.0 0.00 0.00 0.00 89 1005.9
20260507050733 56 289 2.0 3.0 0.00 0.00 0.00 89 1005.9
20260507050231 56 3 1.0 1.0 0.00 0.00 0.00 89 1006.0
20260507045728 56 302 0.0 3.0 0.00 0.00 0.00 90 1006.2
20260507045224 56 292 0.0 0.0 0.00 0.00 0.00 91 1006.2
20260507044721 57 297 0.0 0.0 0.00 0.00 0.00 91 1006.3
20260507044217 57 292 1.0 2.0 0.00 0.00 0.00 91 1006.2
20260507043714 57 290 1.0 3.0 0.00 0.00 0.00 91 1005.9
20260507043211 57 298 1.0 2.0 0.00 0.00 0.00 92 1005.8
20260507042707 58 340 0.0 1.0 0.00 0.00 0.00 92 1006.1
20260507042202 58 46 0.0 2.0 0.00 0.00 0.00 93 1006.0
20260507041700 59 306 0.0 0.0 0.00 0.00 0.00 94 1005.9
20260507041156 59 299 1.0 2.0 0.00 0.00 0.00 95 1006.0
20260507040653 59 258 0.0 0.0 0.00 0.00 0.00 95 1006.0
20260507040149 59 258 0.0 0.0 0.00 0.00 0.00 95 1006.1
20260507035645 59 258 0.0 0.0 0.00 0.06 0.06 95 1005.9
20260507035141 59 289 0.0 0.0 0.00 0.06 0.06 95 1005.9
20260507034638 59 288 0.0 0.0 0.00 0.06 0.06 95 1005.6
20260507034136 59 288 0.0 1.0 0.00 0.06 0.06 95 1005.6
20260507033634 59 245 0.0 0.0 0.00 0.06 0.06 95 1005.7
20260507033131 59 310 1.0 2.0 0.00 0.06 0.06 94 1005.8
20260507032629 59 312 0.0 1.0 0.07 0.06 0.06 94 1005.8
20260507032124 59 313 0.0 0.0 0.00 0.05 0.05 94 1005.8
20260507031621 59 267 1.0 1.0 0.00 0.05 0.05 93 1005.5
20260507031118 60 276 0.0 1.0 0.00 0.05 0.05 93 1005.4
20260507030615 60 277 0.0 0.0 0.00 0.05 0.05 93 1005.4
20260507030113 60 277 0.0 0.0 0.00 0.05 0.05 93 1005.1
20260507025609 60 277 0.0 0.0 0.00 0.05 0.05 93 1005.1
20260507025106 60 277 0.0 0.0 0.00 0.05 0.05 93 1005.3
20260507024604 60 297 0.0 1.0 0.00 0.05 0.05 93 1005.3
20260507024101 60 281 2.0 2.0 0.00 0.05 0.05 93 1005.3
20260507023556 59 275 0.0 3.0 0.00 0.05 0.05 93 1005.4
20260507023054 59 283 0.0 1.0 0.00 0.05 0.05 93 1005.4
20260507022551 59 152 0.0 1.0 0.00 0.05 0.05 93 1005.5
20260507022046 59 152 0.0 0.0 0.00 0.05 0.05 93 1005.4
20260507021543 59 159 1.0 2.0 0.00 0.05 0.05 93 1005.3
20260507021039 59 303 2.0 4.0 0.00 0.05 0.05 93 1005.5
20260507020537 59 203 1.0 1.0 0.00 0.05 0.05 93 1005.5
20260507020033 59 218 1.0 1.0 0.00 0.05 0.05 93 1005.3
20260507015532 59 199 1.0 2.0 0.00 0.05 0.05 93 1005.3
20260507015029 59 199 0.0 2.0 0.00 0.05 0.05 93 1005.4
20260507014525 59 307 0.0 2.0 0.00 0.05 0.05 93 1005.4
20260507014021 59 128 1.0 6.0 0.00 0.05 0.05 93 1005.6
20260507013518 59 174 0.0 1.0 0.00 0.05 0.05 93 1005.3
20260507013015 59 174 1.0 1.0 0.00 0.05 0.05 93 1005.6
20260507012512 59 271 0.0 0.0 0.00 0.05 0.05 93 1005.5
20260507012008 59 147 2.0 4.0 0.00 0.05 0.05 93 1005.5
20260507011506 59 133 1.0 1.0 0.00 0.05 0.05 93 1005.5
20260507011001 59 188 1.0 1.0 0.00 0.05 0.05 93 1005.5
20260507010456 59 178 1.0 3.0 0.00 0.05 0.05 93 1005.6
20260507005953 59 176 0.0 1.0 0.00 0.05 0.05 93 1005.5
20260507005451 59 172 1.0 1.0 0.00 0.05 0.05 93 1005.8
20260507004947 59 144 0.0 2.0 0.00 0.05 0.05 93 1005.7
20260507004443 59 172 2.0 2.0 0.00 0.05 0.05 93 1005.6
20260507003941 59 285 2.0 6.0 0.00 0.05 0.05 93 1005.5
20260507003436 59 183 0.0 1.0 0.00 0.05 0.05 93 1005.7
20260507002931 59 219 2.0 3.0 0.00 0.05 0.05 93 1005.3
20260507002428 59 152 1.0 3.0 0.00 0.05 0.05 93 1005.6
20260507001925 59 164 1.0 2.0 0.00 0.05 0.05 93 1005.6
20260507001422 59 308 2.0 2.0 0.00 0.05 0.05 93 1005.6
20260507000919 59 189 1.0 2.0 0.00 0.05 0.05 93 1005.3
20260507000415 59 186 1.0 1.0 0.00 0.05 0.05 93 1005.2
20260506235910 59 179 0.0 2.0 0.00 0.05 0.05 93 1005.3
20260506235408 59 172 0.0 2.0 0.00 0.05 0.05 93 1005.2
20260506234903 60 168 2.0 3.0 0.00 0.05 0.05 93 1005.4
20260506234402 60 172 0.0 0.0 0.00 0.05 0.05 93 1005.3
20260506233859 60 170 2.0 3.0 0.00 0.05 0.05 93 1005.3
20260506233354 60 185 1.0 1.0 0.00 0.05 0.05 93 1005.2
20260506232852 60 284 0.0 0.0 0.07 0.05 0.05 92 1005.2
20260506232348 60 202 2.0 2.0 0.00 0.04 0.04 92 1005.3
20260506231844 60 262 0.0 2.0 0.00 0.04 0.04 92 1005.3
20260506231342 60 268 0.0 1.0 0.00 0.04 0.04 92 1005.3
20260506230839 60 278 1.0 1.0 0.00 0.04 0.04 92 1005.3
20260506230336 60 217 0.0 2.0 0.00 0.04 0.04 92 1005.3
20260506225832 60 139 0.0 2.0 0.00 0.04 0.04 92 1005.4
20260506225329 60 165 1.0 3.0 0.00 0.04 0.04 92 1005.5
20260506224826 60 254 0.0 1.0 0.00 0.04 0.04 92 1005.3
20260506224323 60 167 1.0 6.0 0.00 0.04 0.04 92 1005.4
20260506223820 60 273 3.0 6.0 0.00 0.04 0.04 91 1005.5
20260506223315 60 234 0.0 2.0 0.00 0.04 0.04 91 1005.5
20260506222813 60 159 1.0 3.0 0.00 0.04 0.04 91 1005.6
20260506222308 60 176 0.0 2.0 0.05 0.04 0.04 91 1005.6
20260506221806 60 162 0.0 1.0 0.05 0.04 0.04 91 1005.8
20260506221303 60 207 3.0 3.0 0.00 0.03 0.03 90 1005.8
20260506220801 60 302 1.0 3.0 0.00 0.03 0.03 90 1005.8
20260506220255 61 122 2.0 4.0 0.00 0.03 0.03 89 1005.8
20260506215752 61 323 1.0 1.0 0.00 0.03 0.03 88 1005.7
20260506215248 61 161 1.0 3.0 0.00 0.03 0.03 87 1006.0
20260506214744 61 194 1.0 2.0 0.00 0.03 0.03 88 1006.0
20260506214241 61 146 1.0 2.0 0.00 0.03 0.03 88 1006.2
20260506213740 61 198 1.0 1.0 0.00 0.03 0.03 88 1006.1
20260506213237 61 193 1.0 1.0 0.00 0.03 0.03 88 1006.2
20260506212735 61 148 3.0 3.0 0.00 0.03 0.03 88 1006.2
20260506212230 61 218 0.0 2.0 0.00 0.03 0.03 89 1006.3
20260506211725 61 271 0.0 1.0 0.00 0.03 0.03 89 1006.3
20260506211221 61 179 0.0 2.0 0.00 0.03 0.03 89 1006.3
20260506210718 61 317 3.0 4.0 0.00 0.03 0.03 88 1006.3
20260506210216 61 197 2.0 4.0 0.00 0.03 0.03 88 1006.3
20260506205713 61 198 1.0 2.0 0.00 0.03 0.03 88 1006.3
20260506205208 61 245 1.0 2.0 0.00 0.03 0.03 88 1006.3
20260506204705 61 178 1.0 3.0 0.00 0.03 0.03 88 1006.4
20260506204202 61 169 0.0 1.0 0.00 0.03 0.03 88 1006.5
20260506203700 61 184 0.0 1.0 0.00 0.03 0.03 88 1006.6
20260506203157 61 224 0.0 1.0 0.07 0.03 0.03 87 1006.4
20260506202655 61 247 1.0 4.0 0.05 0.02 0.02 86 1006.3
20260506202151 62 295 1.0 2.0 0.05 0.02 0.02 85 1006.4
20260506201648 62 277 0.0 2.0 0.00 0.01 0.01 84 1006.2
20260506201144 63 269 1.0 3.0 0.00 0.01 0.01 83 1006.3
20260506200641 63 209 0.0 2.0 0.07 0.01 0.01 82 1006.5
20260506200138 63 271 1.0 3.0 0.07 0.01 0.01 81 1006.1
20260506195634 64 353 1.0 2.0 0.00 0.00 0.00 82 1006.1
20260506195131 64 176 0.0 1.0 0.00 0.00 0.00 81 1006.3
20260506194628 64 163 2.0 4.0 0.00 0.00 0.00 77 1006.3
20260506194124 65 221 1.0 2.0 0.00 0.00 0.00 76 1006.6
20260506193623 65 174 3.0 6.0 0.00 0.00 0.00 74 1006.6
20260506193119 65 159 2.0 3.0 0.00 0.00 0.00 74 1006.6
20260506192616 66 240 1.0 2.0 0.00 0.00 0.00 72 1006.5
20260506192112 66 272 2.0 9.0 0.00 0.00 0.00 70 1006.5
20260506191609 67 208 0.0 2.0 0.00 0.00 0.00 70 1006.5
20260506191104 67 295 2.0 2.0 0.00 0.00 0.00 68 1006.3
20260506190602 68 312 1.0 2.0 0.00 0.00 0.00 66 1006.3
20260506190059 69 283 1.0 3.0 0.00 0.00 0.00 64 1006.4
20260506185556 69 256 2.0 3.0 0.00 0.00 0.00 62 1006.6
20260506185053 69 209 1.0 7.0 0.00 0.00 0.00 60 1006.7
20260506184550 70 34 0.0 2.0 0.00 0.00 0.00 59 1006.6
20260506184047 70 274 2.0 9.0 0.00 0.00 0.00 57 1006.5
20260506183543 71 303 5.0 8.0 0.00 0.00 0.00 55 1006.4
20260506183040 71 141 1.0 6.0 0.00 0.00 0.00 53 1006.5
20260506182537 72 269 2.0 4.0 0.00 0.00 0.00 52 1006.7
20260506182035 72 146 2.0 7.0 0.00 0.00 0.00 51 1006.5
20260506181532 72 175 1.0 1.0 0.00 0.00 0.00 50 1006.6
20260506181029 72 291 4.0 7.0 0.00 0.00 0.00 49 1006.7
20260506180525 72 200 3.0 6.0 0.00 0.00 0.00 49 1006.5
20260506180022 72 291 0.0 4.0 0.00 0.00 0.00 51 1006.7
20260506175519 73 158 2.0 4.0 0.00 0.00 0.00 51 1006.9
20260506175015 73 174 5.0 8.0 0.00 0.00 0.00 51 1006.9
20260506174514 73 216 3.0 4.0 0.00 0.00 0.00 51 1006.7
20260506174009 73 212 1.0 7.0 0.00 0.00 0.00 52 1006.8
20260506173507 73 192 1.0 3.0 0.00 0.00 0.00 52 1006.9
20260506173004 73 192 1.0 7.0 0.00 0.00 0.00 52 1007.0
20260506172502 74 157 2.0 4.0 0.00 0.00 0.00 51 1006.8
20260506171957 73 294 2.0 3.0 0.00 0.00 0.00 52 1006.9
20260506171455 73 149 1.0 9.0 0.00 0.00 0.00 52 1007.0
20260506170953 73 218 5.0 8.0 0.00 0.00 0.00 52 1006.9
20260506170449 73 170 1.0 3.0 0.00 0.00 0.00 54 1006.8
20260506165948 72 182 0.0 4.0 0.00 0.00 0.00 54 1007.1
20260506165446 72 210 2.0 4.0 0.00 0.00 0.00 54 1007.2
20260506164942 72 247 2.0 4.0 0.00 0.00 0.00 54 1007.3
20260506164438 72 314 3.0 4.0 0.00 0.00 0.00 53 1007.3
20260506163936 72 257 0.0 1.0 0.00 0.00 0.00 54 1007.3
20260506163431 72 256 1.0 3.0 0.00 0.00 0.00 53 1007.3
20260506162926 72 248 1.0 4.0 0.00 0.00 0.00 53 1007.6
20260506162424 73 303 4.0 11.0 0.00 0.00 0.00 51 1007.4
20260506161921 73 271 1.0 4.0 0.00 0.00 0.00 51 1007.6
20260506161420 73 312 2.0 7.0 0.00 0.00 0.00 52 1007.7
20260506160916 73 271 2.0 2.0 0.00 0.00 0.00 52 1007.8
20260506160414 73 189 1.0 3.0 0.00 0.00 0.00 51 1007.8
20260506155911 73 161 1.0 4.0 0.00 0.00 0.00 51 1007.9
20260506155408 73 297 1.0 2.0 0.00 0.00 0.00 52 1008.0
20260506153525 73 316 2.0 6.0 0.00 0.00 0.00 53 1008.3
20260506153022 72 260 0.0 6.0 0.00 0.00 0.00 53 1008.4
20260506152519 72 197 0.0 4.0 0.00 0.00 0.00 53 1008.6
20260506152017 72 284 4.0 6.0 0.00 0.00 0.00 52 1008.5
20260506151514 72 316 0.0 3.0 0.00 0.00 0.00 54 1008.5
20260506151012 72 216 1.0 9.0 0.00 0.00 0.00 55 1008.3
20260506150508 71 296 2.0 7.0 0.00 0.00 0.00 55 1008.6
20260506150005 71 177 2.0 3.0 0.00 0.00 0.00 56 1008.9
20260506145501 71 234 1.0 8.0 0.00 0.00 0.00 57 1008.9
20260506144959 71 280 0.0 1.0 0.00 0.00 0.00 58 1008.7
20260506144455 70 191 2.0 11.0 0.00 0.00 0.00 59 1008.6
20260506143954 70 263 1.0 4.0 0.00 0.00 0.00 61 1008.4
20260506143450 69 176 1.0 4.0 0.00 0.00 0.00 60 1008.6
20260506142949 69 33 1.0 3.0 0.00 0.00 0.00 60 1009.0
20260506142446 69 286 2.0 3.0 0.00 0.00 0.00 61 1008.6
20260506141944 69 147 4.0 7.0 0.00 0.00 0.00 61 1008.5
20260506141442 69 146 3.0 4.0 0.00 0.00 0.00 62 1008.7
20260506140940 69 204 2.0 6.0 0.00 0.00 0.00 62 1008.6
20260506140437 68 270 4.0 7.0 0.00 0.00 0.00 63 1008.7
20260506135933 68 295 1.0 6.0 0.00 0.00 0.00 64 1008.8
20260506135431 67 199 0.0 1.0 0.00 0.00 0.00 65 1009.0
20260506134927 67 311 1.0 3.0 0.00 0.00 0.00 66 1008.9
20260506134423 67 138 0.0 2.0 0.00 0.00 0.00 66 1009.0
20260506133920 67 287 2.0 2.0 0.00 0.00 0.00 67 1009.1
20260506133417 66 316 0.0 3.0 0.00 0.00 0.00 68 1009.4
20260506132914 66 164 2.0 2.0 0.00 0.00 0.00 67 1009.3
20260506132411 66 159 2.0 4.0 0.00 0.00 0.00 67 1009.4
20260506131909 66 141 2.0 4.0 0.00 0.00 0.00 68 1009.2
20260506131404 66 306 2.0 2.0 0.00 0.00 0.00 68 1009.3
20260506130902 65 161 2.0 3.0 0.00 0.00 0.00 68 1009.2
20260506130358 65 227 2.0 3.0 0.00 0.00 0.00 69 1009.3
20260506125856 66 178 3.0 8.0 0.00 0.00 0.00 68 1009.4
20260506125354 65 179 0.0 0.0 0.00 0.00 0.00 68 1009.3
20260506124853 65 186 2.0 8.0 0.00 0.00 0.00 68 1009.2
20260506124349 65 310 4.0 6.0 0.00 0.00 0.00 70 1009.2
20260506123847 64 289 4.0 6.0 0.00 0.00 0.00 71 1009.2
20260506123345 63 177 1.0 6.0 0.00 0.00 0.00 72 1009.5
20260506122842 63 185 2.0 4.0 0.00 0.00 0.00 72 1009.6
20260506122339 63 228 0.0 6.0 0.00 0.00 0.00 72 1009.4
20260506121837 64 244 2.0 4.0 0.00 0.00 0.00 72 1009.6
20260506121334 63 269 1.0 2.0 0.00 0.00 0.00 72 1009.5
20260506120831 63 190 2.0 4.0 0.00 0.00 0.00 73 1009.2
20260506120329 63 194 2.0 3.0 0.00 0.00 0.00 73 1009.5
20260506115826 63 155 3.0 3.0 0.00 0.00 0.00 72 1009.5
20260506115324 63 196 2.0 6.0 0.00 0.00 0.00 72 1009.5
20260506114821 63 266 1.0 4.0 0.00 0.00 0.00 72 1009.5
20260506114319 63 282 1.0 2.0 0.00 0.00 0.00 72 1009.5
20260506113818 63 225 0.0 4.0 0.00 0.00 0.00 72 1009.7
20260506113315 63 196 1.0 6.0 0.00 0.00 0.00 73 1009.8
20260506112811 63 194 0.0 3.0 0.00 0.00 0.00 73 1010.0
20260506112309 63 292 0.0 3.0 0.00 0.00 0.00 73 1009.7
20260506111806 63 304 2.0 8.0 0.00 0.00 0.00 73 1009.6
20260506111304 62 247 2.0 4.0 0.00 0.00 0.00 73 1009.5
20260506110801 62 173 0.0 0.0 0.00 0.00 0.00 74 1009.7
20260506110258 62 181 0.0 0.0 0.00 0.00 0.00 75 1009.6
20260506105754 61 181 0.0 2.0 0.00 0.00 0.00 76 1009.6